Overview Statistics Trail Chart Weather Telemetry Raw packets
 

This is the latest recevied weather packets stored in our database for station/object K7MT-WX. If no packets are shown the sender has not sent any weather packets the latest 10 day(s).

<< 25 26 27 28 29 30 31 >>
Time Temp. Humidity Pressure Rain* Wind** Luminosity Snow
1788034619 23.33° C 49% 1009.7 hPa 0 mm - - -
1788033719 23.33° C 62% 1009.3 hPa 0 mm - - -
1788032789 24.44° C 52% 1009.3 hPa 0 mm - - -
1788031889 25.56° C 51% 1009.4 hPa 0 mm - - -
1788030989 25.56° C 52% 1009.8 hPa 0 mm - - -
1788030089 25° C 50% 1010.4 hPa 0 mm - - -
1788029189 25.56° C 52% 1010.7 hPa 0 mm - - -
1788028289 24.44° C 54% 1011.2 hPa 0 mm - - -
1788027389 24.44° C 54% 1011.4 hPa 0 mm - - -
1788026459 23.89° C 56% 1011.7 hPa 0 mm - - -
1788025559 23.33° C 57% 1012 hPa 0 mm - - -
1788024659 22.78° C 58% 1012.3 hPa 0 mm - - -
1788023758 22.22° C 59% 1012.6 hPa 0 mm - - -
1788022858 21.67° C 62% 1012.9 hPa 0 mm - - -
1788021958 21.67° C 61% 1013.1 hPa 0 mm - - -
1788021058 21.11° C 61% 1013.3 hPa 0 mm - - -
1788020158 20.56° C 65% 1013.4 hPa 0 mm - - -
1788019258 19.44° C 71% 1013.6 hPa 0 mm - - -
1788018358 18.33° C 74% 1013.8 hPa 0 mm - - -
1788017458 19.44° C 73% 1014 hPa 0 mm - - -
1788016558 18.33° C 77% 1013.7 hPa 0 mm - - -
1788015658 16.67° C 80% 1013.9 hPa 0 mm - - -
1788014758 15° C 84% 1014.2 hPa 0 mm - - -
1788013858 13.89° C 86% 1014.3 hPa 0 mm - - -
1788012958 13.33° C 88% 1014.3 hPa 0 mm - - -

* Rain latest hour (hover to see other rain measurements)
** Current wind speed in m/s (hover to see current wind gust speed)